Fort Hood, TX

1:13 PM CST on November 12, 2019 (GMT -0600)
Killeen-Fort Hood Regional

Weather History for KGRK - August, 2019

Change the Weather History Date:

Sunday, August 25, 2019

  Actual Average Record
Temperature  
Mean Temperature 84 °F -  
Max Temperature 95 °F 92 °F 102 °F (1999)
Min Temperature 73 °F 72 °F 69 °F (1997)
Cooling Degree Days 19    
Growing Degree Days 34 (Base 50)    
Moisture  
Dew Point 72 °F    
Average Humidity 67    
Maximum Humidity 93    
Minimum Humidity 40    
Precipitation  
Precipitation 0.00 in - - ()
Sea Level Pressure  
Sea Level Pressure 29.81 in    
Wind  
Wind Speed 3 mph (SE)    
Max Wind Speed 15 mph    
Max Gust Speed -    
Visibility 10 miles    
Events      
Averages and records for this station are not official NWS values.
T = Trace of Precipitation, MM = Missing Value Source: NWS Daily Summary

Daily Weather History Graph

Daily Weather History Graph

Search for Another Location

Airport or City:

Astronomy

Aug. 25, 2019 Rise Set
Actual Time 7:03 AM CDT 8:03 PM CDT
Civil Twilight 6:38 AM CDT 8:28 PM CDT
Nautical Twilight 6:08 AM CDT 8:57 PM CDT
Astronomical Twilight 5:38 AM CDT 9:27 PM CDT
Moon 1:50 AM CDT (8/25) 4:12 PM CDT (8/25)
Length of Visible Light 13h 49m
Length of Day
12h 59m
Waning Crescent, 29% of the Moon is Illuminated
Aug 25
Waning Crescent
Aug 30
New
Sep 5
First Quarter
Sep 13
Full
Sep 21
Last Quarter

Hourly Weather History & Observations

Time (CDT) Temp. Heat Index Dew Point Humidity Pressure Visibility Wind Dir Wind Speed Gust Speed Precip Events Conditions
12:58 AM 77.4 °F - 72.0 °F 83% 29.88 in 10.0 mi Calm Calm - N/A   Mostly Cloudy
1:58 AM 76.6 °F - 72.0 °F 85% 29.86 in 10.0 mi Calm Calm - N/A   Clear
2:58 AM 75.6 °F - 71.8 °F 88% 29.85 in 9.0 mi Calm Calm - N/A   Clear
3:58 AM 75.7 °F - 72.0 °F 88% 29.83 in 9.0 mi SW 4.6 mph - N/A   Clear
4:58 AM 73.4 °F - 71.4 °F 93% 29.85 in 10.0 mi Calm Calm - N/A   Clear
5:58 AM 73.6 °F - 71.6 °F 93% 29.83 in 10.0 mi Calm Calm - N/A   Clear
6:58 AM 74.7 °F - 71.8 °F 91% 29.84 in 10.0 mi Calm Calm - N/A   Clear
7:58 AM 75.0 °F - 72.5 °F 92% 29.86 in 10.0 mi East 4.6 mph - N/A   Clear
8:58 AM 77.9 °F - 73.8 °F 87% 29.87 in 10.0 mi Calm Calm - N/A   Clear
9:58 AM 82.4 °F 89.0 °F 74.5 °F 77% 29.88 in 10.0 mi Calm Calm - N/A   Clear
10:58 AM 84.4 °F 93.1 °F 75.6 °F 75% 29.88 in 10.0 mi SSE 4.6 mph - N/A   Clear
11:58 AM 88.3 °F 98.4 °F 75.2 °F 65% 29.86 in 10.0 mi SSE 5.8 mph - N/A   Clear
12:28 PM 89.6 °F 98.2 °F 73.4 °F 59% 29.85 in 10.0 mi SW 5.8 mph - N/A   Mostly Cloudy
12:48 PM 91.4 °F 100.1 °F 73.4 °F 55% 29.83 in 10.0 mi SE 6.9 mph - N/A   Scattered Clouds
12:58 PM 90.7 °F 98.5 °F 72.7 °F 55% 29.83 in 10.0 mi SSE 8.1 mph - N/A   Partly Cloudy
1:58 PM 92.7 °F 101.7 °F 73.0 °F 53% 29.78 in 10.0 mi ESE 3.5 mph - N/A   Scattered Clouds
2:23 PM 93.2 °F 100.5 °F 71.6 °F 49% 29.78 in 10.0 mi ESE 6.9 mph - N/A   Mostly Cloudy
2:28 PM 91.4 °F 98.4 °F 71.6 °F 52% 29.79 in 10.0 mi SSE 6.9 mph - N/A   Scattered Clouds
2:33 PM 91.4 °F 98.4 °F 71.6 °F 52% 29.79 in 10.0 mi SE 4.6 mph - N/A   Mostly Cloudy
2:53 PM 95.0 °F 104.5 °F 73.4 °F 49% 29.78 in 10.0 mi SSE 6.9 mph - N/A   Scattered Clouds
2:58 PM 93.9 °F 102.1 °F 72.3 °F 49% 29.78 in 10.0 mi SSE 6.9 mph - N/A   Scattered Clouds
3:58 PM 94.8 °F 101.5 °F 70.7 °F 45% 29.74 in 10.0 mi SE 6.9 mph - N/A   Clear
4:58 PM 95.4 °F 100.8 °F 68.7 °F 42% 29.73 in 10.0 mi SE 8.1 mph - N/A   Clear
5:58 PM 95.9 °F 100.7 °F 68.0 °F 40% 29.72 in 10.0 mi East 9.2 mph - N/A   Clear
6:58 PM 94.1 °F 100.0 °F 69.6 °F 45% 29.70 in 10.0 mi ESE 10.4 mph - N/A   Clear
8:58 PM 86.2 °F 92.6 °F 72.1 °F 63% 29.72 in 10.0 mi SSE 4.6 mph - N/A   Clear
9:58 PM 85.1 °F 91.8 °F 73.2 °F 67% 29.74 in 7.0 mi SE 15.0 mph - N/A   Clear
10:58 PM 83.3 °F 90.2 °F 74.3 °F 74% 29.75 in 10.0 mi SE 11.5 mph - N/A   Clear
11:58 PM 81.9 °F 88.0 °F 74.3 °F 78% 29.75 in 10.0 mi SSE 9.2 mph - N/A   Clear